Location: Bernay
(48.6766°N, 2.9386°E)
Time: 20:54:24
(UTC+00:00)

Daily predictions for brighter satellites

Satellite Brightness Start Highest point End
(mag) Time Altitude Azimuth Time Altitude Azimuth Time Altitude Azimuth
BREEZE-M DEB (TANK) 4.2 16:28:21 10° SW 16:32:57 56° SE 16:48:37 10° ENE
Nadezhda 1 Rocket 4.1 16:41:53 10° SSE 16:47:44 53° E 16:53:37 10° NNE
Cosmos 1954 Rocket 4.2 16:44:08 10° NNW 16:49:09 47° ENE 16:54:11 10° SE
CBERS-1 4.1 16:44:23 10° SSE 16:49:29 89° ENE 16:54:36 10° NNW
Cosmos 1666 Rocket 4.2 16:47:29 10° N 16:51:33 34° ENE 16:55:37 10° SE
USA 238 DEB 4.3 16:49:01 10° NW 16:55:48 43° NNE 17:03:13 10° ESE
USA 238 4.3 16:49:08 10° NW 16:55:54 42° NNE 17:03:19 10° ESE
Meteor 1-28 Rocket 2.8 16:53:44 10° NNE 16:57:02 75° ESE 17:00:18 10° S
SL-8 Rocket 4.4 16:53:22 10° N 16:59:10 39° ENE 17:04:53 10° SE
IGS 5A 4.1 16:58:38 10° S 17:02:32 58° W 17:06:29 10° NNW
SAR-Lupe-4 4.4 17:00:09 10° SE 17:03:18 30° ENE 17:06:28 10° N
Cosmos 1328 Rocket 4.2 17:00:32 10° SSE 17:04:28 34° E 17:08:26 10° NNE
SPOT 1/Viking Rocket 4.0 17:00:12 10° SE 17:04:53 37° ENE 17:09:35 10° N
Thor Agena Rocket 3.5 17:00:50 10° SSE 17:05:51 84° ENE 17:10:54 10° NNW
USA 267 3.6 17:00:05 10° E 17:06:20 50° NNE 17:12:35 10° WNW
MOS 1 Rocket 3.6 17:01:11 10° SSE 17:06:27 65° ENE 17:11:31 10° N
Cosmos 1805 Rocket 4.4 17:02:18 10° NNW 17:06:35 54° W 17:10:48 10° S
Cosmos 1190 Rocket 3.9 17:01:41 10° NNW 17:06:53 77° ENE 17:12:03 10° SSE
Cosmos 968 Rocket 4.2 17:02:48 10° N 17:07:21 30° NE 17:11:49 10° ESE
SL-4 R/B 2.1 17:03:36 10° WNW 17:07:34 71° SSW 17:11:26 10° ESE
COSMO-SKYMED 1 4.1 17:09:15 11° NE 17:11:28 15° E 17:13:54 10° SE
BREEZE-M DEB (TANK) 3.2 17:06:24 10° WSW 17:12:53 90° SE 17:16:45 12° ENE
Cosmos 304 Rocket 3.8 17:11:35 10° NNW 17:16:23 89° WSW 17:21:08 10° SSE
IRS-P3 4.2 17:12:08 10° SE 17:17:17 54° ENE 17:22:28 10° N
Resurs 01 Rocket 3.2 17:15:51 11° E 17:17:44 14° ENE 17:20:05 10° NNE
Cosmos 1953 3.0 17:14:34 10° NNE 17:17:48 27° ENE 17:21:00 10° SE
Cosmos 676 Rocket 4.0 17:15:21 10° NNW 17:20:30 63° ENE 17:25:40 10° SE
Cosmos 332 Rocket 4.4 17:17:49 10° N 17:22:07 32° ENE 17:26:23 10° ESE
SL-16 R/B 3.1 17:17:37 10° N 17:23:41 59° WNW 17:29:41 10° SW
BREEZE M DEB (TANK) 2.9 17:22:44 10° W 17:24:44 42° SSW 17:27:50 10° SE
Cosmos 2369 Rocket 2.7 17:23:16 10° NNW 17:28:57 67° WSW 17:34:35 10° SSE
Cosmos 2181 Rocket 4.5 17:25:14 10° SSE 17:30:45 37° E 17:36:21 10° NNE
YAOGAN 1 3.1 17:27:15 10° SE 17:31:07 35° ENE 17:35:00 10° N
Cosmos 2297 4.2 17:29:20 10° NNW 17:34:56 64° WSW 17:40:31 10° SSE
NOSS 2-3 (C) 4.2 17:31:01 10° NW 17:35:59 73° NE 17:42:55 10° SE
Cosmos 1943 3.3 17:31:05 10° S 17:36:34 57° ESE 17:41:43 12° NE
NOSS 2-3 (D) 4.2 17:32:32 10° NW 17:37:34 83° NE 17:44:24 10° SE
Landsat 7 4.4 17:33:14 10° S 17:37:49 59° W 17:42:26 10° NNW
NOSS 3-4 (A) 4.0 17:34:16 10° S 17:38:44 29° ESE 17:41:28 19° ENE
NOSS 3-4 (C) 4.1 17:34:24 10° S 17:38:53 29° ESE 17:41:36 19° ENE
SJ 16-02 2.0 17:37:23 10° NNW 17:41:35 57° WSW 17:45:46 10° S
SMAP 4.3 17:39:22 10° S 17:43:48 44° W 17:48:16 10° NNW
Cosmos 1470 Rocket 3.4 17:40:52 10° N 17:45:09 63° ENE 17:49:26 10° SSE
Radarsat Rocket 4.1 17:40:42 10° SE 17:46:49 52° ENE 17:52:30 10° N
UNK 4.4 17:42:50 10° N 17:47:15 55° WNW 17:51:39 10° SSW
COSMOS 2455 4.4 17:45:30 10° NNW 17:49:28 18° NNE 17:51:04 16° NE
Meteor 1-23 Rocket 4.3 17:46:00 10° S 17:51:32 56° E 17:57:03 10° NNE
Cosmos 2218 Rocket 4.0 17:45:33 10° N 17:51:59 76° E 17:58:22 10° SSE
Cosmos 2366 rocket 4.0 17:45:39 10° N 17:52:01 81° E 17:58:23 10° SSE
Spot 4 Rocket 4.0 17:47:42 10° SE 17:52:41 56° ENE 17:57:42 10° N
Cosmos 2237 Rocket 4.3 17:49:07 10° W 17:53:11 20° NW 17:57:16 10° N
Cosmos 1933 Rocket 4.0 17:49:06 10° N 17:53:12 36° ENE 17:57:15 10° SE
ATLAS 3B R/B 4.1 17:46:41 10° W 17:53:43 36° NNW 18:00:05 13° NE
SL-16 R/B 3.1 17:49:22 10° SW 17:54:49 47° NW 18:00:17 10° NNE
PSLV R/B 3.7 17:51:32 10° SE 17:55:29 45° ENE 17:59:28 10° N
Cosmos 1703 2.9 17:53:16 10° S 17:56:30 52° E 17:57:38 33° NE
Meteor 1-12 Rocket 4.3 17:52:59 10° N 17:58:34 55° ENE 18:04:05 10° SSE
Meteor 1-21 4.2 17:54:43 10° S 18:00:12 59° E 18:05:43 10° NNE
Cosmos 2341 Rocket 4.1 17:56:34 10° N 18:02:57 80° W 18:09:13 10° S
BREEZE-M DEB (TANK) 3.5 18:03:53 10° SSW 18:06:16 34° SE 18:06:56 32° ESE
SL-24 R/B - RUBIN 2 3.9 18:06:36 10° NNW 18:10:47 41° NE 18:11:19 39° ENE
DNEPR-1 R/B 4.3 18:07:37 10° S 18:11:35 32° ESE 18:11:37 32° ESE
BREEZE-M DEB (TANK) 1.8 18:09:36 10° WNW 18:11:58 77° SW 18:11:58 77° SW
Cosmos 2056 Rocket 3.9 18:07:04 10° SW 18:12:09 60° WNW 18:16:51 12° NNE
ATLAS 5 CENTAUR R/B 0.7 18:09:37 10° SW 18:12:35 72° NW 18:13:01 59° N
Meteor 1-16 Rocket 3.9 18:07:29 10° N 18:12:49 78° ENE 18:18:10 10° SSE
USA 215 3.4 18:10:46 28° ENE 18:14:16 58° SE 18:20:41 10° SW
ARIANE 5 R/B 4.1 18:09:48 10° SSW 18:14:38 38° W 18:19:29 10° NNW
Cosmos 1869 Rocket 3.8 18:15:29 10° N 18:19:21 45° ENE 18:19:21 45° ENE
Nadezhda 3 Rocket 4.1 18:16:09 10° SSE 18:21:58 47° E 18:27:16 13° NNE
Meteor 2-15 Rocket 4.4 18:16:17 10° N 18:22:24 62° ENE 18:28:27 10° SSE
SJ-7 4.2 18:19:55 10° S 18:23:42 80° WSW 18:27:31 10° NNW
ISS -2.0 18:23:33 10° SSW 18:25:24 22° S 18:25:24 22° S
Resurs 1-3 4.0 18:23:32 10° S 18:27:48 63° W 18:32:06 10° NNW
Meteor 2-13 Rocket 4.3 18:23:04 10° S 18:29:13 79° E 18:35:24 10° NNE
Cosmos 292 Rocket 3.6 18:26:46 10° NNW 18:31:28 65° ENE 18:32:17 54° ESE
Cosmos 1980 Rocket 4.1 18:28:31 10° N 18:30:22 14° NNE 18:30:22 14° NNE
BREEZE-M DEB (TANK) 3.1 18:31:07 10° SW 18:34:18 67° SSE 18:36:26 41° E
CARTOSAT-1 3.4 18:31:05 10° SSE 18:35:18 89° ENE 18:39:32 10° NNW
Cosmos 1656 3.6 18:30:12 10° NNW 18:35:47 59° ENE 18:36:54 49° ESE
SKYMED 2 4.5 18:33:23 10° N 18:37:33 48° WNW 18:41:43 10° SW
DMSP B5D1-3 4.4 18:40:06 57° ENE 18:40:51 65° ESE 18:45:52 10° S
SL-4 R/B 4.5 18:42:00 10° W 18:44:39 18° SW 18:47:15 10° S
COSMO-SKYMED 1 2.9 18:45:34 34° N 18:47:08 58° WNW 18:51:10 10° SSW
USA 238 DEB 4.2 18:39:56 10° NW 18:47:18 71° SW 18:55:19 10° SSE
USA 238 4.2 18:40:02 10° NW 18:47:24 72° SW 18:55:26 10° SSE
Cosmos 1741 Rocket 4.3 18:43:41 10° NNW 18:48:53 66° WSW 18:54:01 10° S
USA 267 3.2 18:46:12 37° SE 18:49:05 88° SSW 18:55:41 10° NW
Cosmos 968 Rocket 4.5 18:44:20 10° NNW 18:49:14 46° WSW 18:54:05 10° S
BREEZE-M DEB (TANK) 3.0 18:46:56 10° W 18:50:58 75° NW 18:50:58 75° NW
Resurs 01 Rocket 1.6 18:53:14 74° SSW 18:53:31 79° WSW 18:57:55 10° NNW
Cosmos 1603 3.7 18:48:34 10° SSW 18:54:14 79° WNW 18:56:03 45° NNE
Cosmos 1331 Rocket 4.1 18:50:45 10° SSW 18:55:51 69° WNW 18:57:24 44° N
Cosmos 1697 Rocket 3.9 18:53:17 10° NNW 18:56:29 28° N 18:56:29 28° N
Okean 2 4.4 18:59:15 10° SSW 19:02:03 40° WSW 19:02:03 40° WSW
Cosmos 1452 Rocket 3.9 19:12:44 10° SW 19:17:55 60° WNW 19:18:18 58° NW
Cosmos 2360 4.4 19:18:31 10° NNW 19:23:39 70° WNW 19:23:39 70° WNW
Cosmos 1339 Rocket 4.4 19:18:37 10° S 19:24:50 82° W 19:25:09 79° NW
NOSS 3-4 (A) 3.6 19:23:52 10° WSW 19:28:55 57° NW 19:28:55 57° NW
NOSS 3-4 (C) 3.6 19:23:59 10° WSW 19:29:03 58° NW 19:29:03 58° NW
COSMOS 2455 4.2 19:31:07 10° NNW 19:34:12 29° N 19:34:12 29° N
ATLAS 3B R/B 4.3 19:40:24 10° NW 19:46:52 26° N 19:47:20 26° N
USA 215 3.6 19:58:06 59° NW 19:58:06 59° NW 20:03:48 10° WSW
NOSS 3-1 (C) 4.5 19:58:26 10° NW 20:03:05 48° NNW 20:03:05 48° NNW
